STARLINK-34250, 64690

Orbit data source: Space-Track

STARLINK-34250, 64690 is a payload satellite owned by SpaceX/Seattle (US) in LEO that was launched on Sat, 28 Jun 2025 UTC via an FALCON 9 launch vehicle from the Air Force Eastern Test Range (AFETR). Payload-class satellites include a variety of spacecraft equipped with specific instruments for various scientific and technological missions. These include communications satellites like Starlink; space stations such as the ISS; scientific satellites like the Hubble; Earth observation satellites from companies like Planet Labs, Umbra, and HawkEye 360; GPS; miniature CubeSats for education and research; and military/defense satellites.

Loading next visibility...
Identifier
64690, 2025-139AC
Orbit
LEO
Country
Flag of USUS
Related business
Manufacturer
SpaceX/Seattle
Mission
Operational Commercial Communications
Bus & Motor
STARLINK V2MO, Unknown motor
Mass
575 kg wet, ~530 kg dry
Launch date (UTC)
2025-06-28 (1 year ago)
Launch vehicle
FALCON 9
Launch site
Air Force Eastern Test Range (AFETR)
Object type
Payload
Rocket body
Debris
Shape & HBR
Box + 2 Pan, 17.7 m
Radar Cross Section
36.964 m², Large (>1 m²)

Expand to show TLE details & history
Last TLE update: 1 day ago

TLE from 1 day ago
0 STARLINK-34250
1 64690U 25139AC  26170.83605876  .00012365  00000-0  37642-3 0  9996
2 64690  53.1598  11.1228 0001122  66.3934 293.7186 15.34405762 55946
Epoch: 2026-06-19T20:03Z
TLE epoch observation values (Epoch: 2026-06-19T20:03:55.476Z)
Latitude
-0.00007°
Longitude
162.08228°
Altitude
463.279 km
Speed
7.636 km/s
True Right ascension
00h 44m 29s
True Declination
0° 00' 00"
Sunlit
Object was in daylight at epoch
Visualization orbit readout
Latitude
Unknown
Longitude
Unknown
Altitude
Unknown
Speed
Unknown
Apparent Right ascension
Unknown
Apparent Declination
Unknown
Sunlit
N/A
Visualization observer readout
Local Sidereal Time
07:21:52
Azimuth
Unknown
Elevation
Unknown
Doppler factor
Unknown
Orbital elements
Apogee altitude
463.711 km
Perigee altitude
462.175 km
Semi-major axis
6,841.08 km
Eccentricity
0.00011
Inclination
53.1598°
RAAN
11.1228°
Arg. of periapsis
66.3934°
True anomaly
293.70683°
Mean anomaly
293.7186°
Eccentric anomaly
293.71271°
Mean motion
3.8358 °/min
Orbital period
93.85 mins
BSTAR
0.00037642
Loading maneuver chart data...
Computing Atmospheric mass density...
Loading historical data...
Loading historical data...
Loading historical data...
Loading historical data...
Loading historical data...
Loading historical data...
Loading historical data...

Documentation

Showing up to 5 results
|